P/2003 T12 ( SOHO )

Japanese version
Home page
Updated on September 23, 2012

---------------------------------------------------------------------

* Profile

Discovery Date October 9, 2003
Magnitude 8.8 mag
Discoverer J. Danaher (SOHO C3 images)

* Orbital Elements

Epoch 2003 Oct. 8.0 TT = JDT 2452920.5
T 2003 Oct. 16.29108 TT                                 MPC
q   0.5887597            (2000.0)            P               Q
n   0.23821301     Peri.  214.67727     +0.83029416     -0.55731726
a   2.5772649      Node   179.17511     +0.54689311     +0.81369934
e   0.7715564      Incl.   12.08001     +0.10732904     +0.16519945
P   4.14
From 62 observations 2003 Oct. 9-2012 Mar. 4, mean residual 1".8.

* Finding Charts

* Magnitudes Graph

        m1 = 20.5 + 5 log d + 25.0 log r

---------------------------------------------------------------------

The orbital elements are published on M.P.E.C. 2012-S31.
The charts are made with StellaNavigator Ver.8 (AstroArts).
The magnitudes graphs are made with Comet for Windows.

---------------------------------------------------------------------

Copyright(C) Seiichi Yoshida (comet@aerith.net). All rights reserved.